This demonstration page uses our WeatherBlox Daily Observations layout. Learn more.

Left ArrowRight Arrow

Hourly Observations for October 9, 2015

Temp ( °F °C ) Dew Point ( °F °C ) Humidity (%) Winds ( mph kmh ) Pressure ( in mb ) Visibility ( mi km ) Precip ( " mm )
12:51 am 00:51 Cloudy 67 19.4 53 11.7 61 61 SSE 6 9 29.97 1015 10 16 0.00 0.00
1:51 am 01:51 Mostly Clear 67 19.4 52 11.1 59 59 E 9 15 29.98 1015 10 16 0.00 0.00
2:51 am 02:51 Clear 64 17.8 52 11.1 65 65 E 8 13 29.97 1015 10 16 0.00 0.00
3:51 am 03:51 Cloudy 65 18.3 53 11.7 66 66 ESE 6 9 30.00 1016 10 16 0.00 0.00
4:51 am 04:51 Partly Cloudy 63 17.2 53 11.7 70 70 ESE 9 15 30.01 1016 10 16 0.00 0.00
5:51 am 05:51 Partly Cloudy 62 16.7 54 12.2 75 75 SSE 6 9 30.03 1017 10 16 0.00 0.00
6:51 am 06:51 Sunny 62 16.7 54 12.2 75 75 E 8 13 30.05 1018 10 16 0.00 0.00
7:51 am 07:51 Mostly Sunny 67 19.4 53 11.7 61 61 SE 7 11 30.08 1019 10 16 0.00 0.00
8:51 am 08:51 Sunny 70 21.1 53 11.7 55 55 S 9 15 30.09 1019 10 16 0.00 0.00
9:51 am 09:51 Sunny 73 22.8 52 11.1 48 48 SE 8 13 30.09 1019 10 16 0.00 0.00
10:51 am 10:51 Mostly Cloudy 74 23.3 52 11.1 46 46 VRB 5 7 30.09 1019 10 16 0.00 0.00
11:51 am 11:51 Mostly Cloudy 79 26.1 51 10.6 38 38 SSE 16 26 30.06 1018 10 16 0.00 0.00
12:51 pm 12:51 Mostly Cloudy 80 26.7 49 9.4 34 34 SE 20 31 30.04 1017 10 16 0.00 0.00
1:51 pm 13:51 Mostly Cloudy 81 27.2 47 8.3 30 30 SE 17 28 30.02 1017 10 16 0.00 0.00
2:51 pm 14:51 Mostly Sunny 83 28.3 47 8.3 28 28 SE 18 30 30.00 1016 10 16 0.00 0.00
3:51 pm 15:51 Cloudy 82 27.8 49 9.4 32 32 ESE 14 22 29.99 1016 10 16 0.00 0.00
4:51 pm 16:51 Partly Cloudy 80 26.7 48 8.9 33 33 ESE 16 26 30.00 1016 10 16 0.00 0.00
5:51 pm 17:51 Mostly Cloudy 79 26.1 49 9.4 35 35 SE 12 19 30.01 1016 10 16 0.00 0.00
6:51 pm 18:51 undefined 76 24.4 50 10 40 40 ESE 10 17 30.03 1017 10 16 0.00 0.00
7:51 pm 19:51 Partly Cloudy 76 24.4 50 10 40 40 SE 15 24 30.05 1018 10 16 0.00 0.00
8:51 pm 20:51 Mostly Clear 72 22.2 51 10.6 48 48 Calm 30.07 1018 10 16 0.00 0.00
9:51 pm 21:51 Clear 67 19.4 51 10.6 57 57 Calm 30.09 1019 10 16 0.00 0.00
10:51 pm 22:51 Clear 69 20.6 52 11.1 55 55 ESE 8 13 30.09 1019 10 16 0.00 0.00
11:51 pm 23:51 Clear 68 20 53 11.7 59 59 ESE 6 9 30.10 1019 10 16 0.00 0.00

Powered by AerisWeather